User: anonymous   Login
Location: Albuquerque Trailhead
(34.7934°N, 106.3736°W)
Time: 22:28:54
(UTC+00:00)
Language:

IRIDIUM 103 - Orbit

View from above orbital plane
View from above orbital plane
View from above satellite
View from above satellite

Ground track
Ground track

The orbit data is extracted from the following two-line orbital elements,

1 41918U 17003B   21266.89334304  .00000015  00000-0 -16673-5 0  9990
2 41918  86.3917  90.2531 0001782  84.1276 276.0123 14.34218381245653
Epoch (UTC): 23 September 2021 21:26:24
Eccentricity: 0.0001782
inclination: 86.3917°
perigee height: 776 km
apogee height: 779 km
right ascension of ascending node: 90.2531°
argument of perigee: 84.1276°
revolutions per day: 14.34218381
mean anomaly at epoch: 276.0123°
orbit number at epoch: 24565

The dashed part of the orbit path shows where the satellite is in the earth's shadow,  

DLR